Location: Guayaquil
(2.1667°S, 79.9000°W)
Time: 17:33:25
(UTC-05:00)

Hubble Space Telescope - Visible Passes

Search period start: 26 May 2017 00:00
Search period end: 05 June 2017 00:00
Orbit: 538 x 541 km, 28.5° (Epoch: 25 May)

Date Brightness Start Highest point End Pass type
(mag) Time Alt. Az. Time Alt. Az. Time Alt. Az.
26 May 3.6 04:34:36 10° N 04:36:45 14° NNE 04:38:52 10° ENE visible
27 May 3.3 04:24:34 13° N 04:26:44 19° NNE 04:29:42 10° ENE visible
28 May 2.7 04:16:23 26° NNE 04:16:42 26° NNE 04:20:12 10° E visible
29 May 2.8 04:08:12 27° ENE 04:08:12 27° ENE 04:10:30 10° E visible
29 May 1.6 05:44:06 10° W 05:47:50 32° SSW 05:51:36 10° SE visible
30 May 3.5 03:59:55 15° ESE 03:59:55 15° ESE 04:00:40 10° ESE visible
30 May 2.0 05:35:21 14° WSW 05:37:49 24° SSW 05:41:12 10° SSE visible
31 May 2.4 05:26:56 16° SW 05:27:49 18° SSW 05:30:39 10° SSE visible
01 Jun 2.8 05:18:20 13° SSW 05:18:20 13° SSW 05:19:50 10° S visible
